Location: Pinawa
(50.1500°N, 95.8830°W)
Time: 20:30:38
(UTC-05:00)

ISS - All Passes

Search period start: 16 September 2014 00:00
Search period end: 26 September 2014 00:00
Orbit: 414 x 417 km, 51.6° (Epoch: 16 September)

Date Brightness Start Highest point End Pass type
(mag) Time Alt. Az. Time Alt. Az. Time Alt. Az.
16 Sep - 05:27:58 10° SSW 05:31:00 33° SSE 05:34:03 10° E visible
16 Sep - 07:04:13 10° W 07:07:34 81° NNW 07:10:54 10° ENE daylight
16 Sep - 08:41:06 10° WNW 08:44:26 70° N 08:47:46 10° E daylight
16 Sep - 10:17:53 10° WNW 10:21:07 47° SSW 10:24:20 10° SE daylight
16 Sep - 11:56:21 10° WSW 11:57:12 11° SW 11:58:03 10° SSW daylight
17 Sep - 04:39:46 10° SSW 04:42:26 23° SE 04:45:07 10° E visible
17 Sep - 06:15:30 10° WSW 06:18:50 83° SSE 06:22:11 10° ENE visible
17 Sep - 07:52:21 10° W 07:55:41 65° N 07:59:00 10° E daylight
17 Sep - 09:29:08 10° WNW 09:32:28 66° SSW 09:35:46 10° ESE daylight
17 Sep - 11:06:32 10° W 11:08:44 17° SW 11:10:55 10° S daylight
18 Sep - 03:51:52 10° S 03:53:53 15° SE 03:55:55 10° E visible
18 Sep - 05:26:49 10° WSW 05:30:07 62° SSE 05:33:26 10° ENE visible
18 Sep - 07:03:33 10° W 07:06:53 66° N 07:10:12 10° E daylight
18 Sep - 08:40:23 10° WNW 08:43:44 87° SSW 08:47:04 10° ESE daylight
18 Sep - 10:17:23 10° W 10:20:09 24° SW 10:22:55 10° SSE daylight
19 Sep - 04:38:12 10° SW 04:41:24 44° SSE 04:44:36 10° E visible
19 Sep - 06:14:43 10° W 06:18:03 71° N 06:21:24 10° ENE visible
19 Sep - 07:51:35 10° WNW 07:54:56 78° NNE 07:58:16 10° E daylight
19 Sep - 09:28:25 10° W 09:31:30 35° SSW 09:34:35 10° SE daylight
20 Sep - 03:49:43 10° SSW 03:52:41 31° SSE 03:55:41 10° E visible
20 Sep - 05:25:52 10° WSW 05:29:13 83° NNW 05:32:34 10° ENE visible
20 Sep - 07:02:44 10° WNW 07:06:04 69° N 07:09:24 10° E daylight
20 Sep - 08:39:31 10° WNW 08:42:46 51° SSW 08:46:01 10° SE daylight
20 Sep - 10:17:37 10° WSW 10:18:53 12° SW 10:20:09 10° SSW daylight
21 Sep - 03:01:25 10° SSW 03:04:00 21° SE 03:06:35 10° E visible
21 Sep - 04:37:01 10° WSW 04:40:21 79° SSE 04:43:42 10° ENE visible
21 Sep - 06:13:51 10° W 06:17:10 65° N 06:20:30 10° E visible
21 Sep - 07:50:38 10° WNW 07:53:58 71° SSW 07:57:17 10° ESE daylight
21 Sep - 09:27:55 10° W 09:30:15 18° SW 09:32:35 10° S daylight
22 Sep - 02:13:29 10° S 02:15:19 14° SE 02:17:09 10° ESE night (unlit)
22 Sep - 03:48:13 10° SW 03:51:30 58° SSE 03:54:48 10° ENE visible
22 Sep - 05:24:55 10° W 05:28:14 66° N 05:31:34 10° E visible
22 Sep - 07:01:44 10° WNW 07:05:05 90° NNE 07:08:26 10° ESE daylight
22 Sep - 08:38:41 10° W 08:41:32 26° SW 08:44:23 10° SSE daylight
23 Sep - 02:59:30 10° SW 03:02:39 41° SSE 03:05:50 10° E visible
23 Sep - 04:35:56 10° W 04:39:16 73° N 04:42:37 10° ENE visible
23 Sep - 06:12:48 10° WNW 06:16:08 75° N 06:19:29 10° E visible
23 Sep - 07:49:36 10° W 07:52:44 38° SSW 07:55:51 10° SE daylight
24 Sep - 02:10:54 10° SSW 02:13:49 28° SE 02:16:44 10° E night (unlit)
24 Sep - 03:46:57 10° WSW 03:50:18 87° NNW 03:53:39 10° ENE visible
24 Sep - 05:23:49 10° WNW 05:27:09 67° N 05:30:28 10° E visible
24 Sep - 07:00:35 10° WNW 07:03:51 55° SSW 07:07:07 10° SE daylight
24 Sep - 08:38:24 10° WSW 08:40:00 13° SW 08:41:35 10° SSW daylight
25 Sep - 01:22:32 10° S 01:25:00 19° SE 01:27:28 10° E night (unlit)
25 Sep - 02:57:59 10° WSW 03:01:19 74° SSE 03:04:39 10° ENE visible
25 Sep - 04:34:47 10° W 04:38:06 65° N 04:41:26 10° E visible
25 Sep - 06:11:34 10° WNW 06:14:54 75° SSW 06:18:14 10° ESE visible
25 Sep - 07:48:44 10° W 07:51:13 19° SW 07:53:41 10° S daylight
